Current weather by "City, St" or "zip code"  
 

Current Conditions: Baker Municipal Airport, OR

Fair


24.0 F

Last Updated on Feb 27 2021, 9:53 pm PST
Humidity: 71%
Wind Speed: N 3.5 mph
Barometer 30.24 in
Dewpoint: 16.0 F
Visibility: 10.00 mi
Precip: --
Heat Index: NA
Wind Chill: NA
Current conditions at:

Baker Municipal Airport, OR (KBKE)

Lat: 44.84302 Lon: 117.80987

Local Radar Image active severe weather and emergency alerts image image weather storm and storm spotter reports image weather observation monitoring service image
Local
Radar
Active
Alerts
Storm Reports Obs
Monitoring

Sign-up For Email & Text Message Weather Alert Notification Services



Advertise Here

Observation History for Baker Municipal Airport, OR


Time Wind
(mph)
Vis
(mi)
Weather Precip (in) Temperature (F) Relative
Humidity
Wind
Chill
(F)
Heat
Index
(F)
Pressure
Air Dwpt altimeter
(in)
sea level
(mb)
Rmks
9:53 pm PST N 3.5 10.00 Fair -- 24.0 16.0 71% NA NA 30.24 1026.9
8:53 pm PST N 0.0 10.00 A Few Clouds -- 26.0 17.1 69% NA NA 30.23 1026.7
7:53 pm PST S 8.1 10.00 Fair -- 27.0 19.0 72% 19 NA 30.21 1026.2
6:53 pm PST S 5.8 10.00 Fair -- 26.0 19.0 75% 19 NA 30.19 1025.7
5:53 pm PST W 3.5 10.00 Mostly Cloudy -- 30.0 21.0 69% NA NA 30.18 1025.1
4:53 pm PST W 9.2 9.00 Mostly Cloudy Trace 32.0 21.9 66% 24 NA 30.17 1024.5
3:53 pm PST W 6.9 10.00 Mostly Cloudy -- 35.0 19.0 52% 29 NA 30.16 1023.9
2:53 pm PST NW 11.5 10.00 Mostly Cloudy -- 36.0 19.0 50% 28 NA 30.15 1023.1
1:53 pm PST N 18.4 10.00 Fair -- 37.0 19.9 50% 27 NA 30.13 1022.4
12:53 pm PST N 16.1 10.00 Mostly Cloudy -- 38.0 19.9 48% 29 NA 30.12 1022.0
11:53 am PST N 20.7 G 26.5 10.00 Fair and Breezy Trace 37.0 21.9 54% 26 NA 30.11 1021.8
10:53 am PST N 23.0 9.00 A Few Clouds and Breezy Trace 35.0 24.1 64% 23 NA 30.08 1021.2
9:53 am PST NW 21.9 G 35.7 4.00 Light Snow and Breezy Trace 33.0 19.9 58% 21 NA 30.05 1019.8
8:53 am PST NW 20.7 G 27.6 10.00 A Few Clouds and Breezy -- 32.0 19.9 61% 20 NA 30.02 1018.8
7:53 am PST S 5.8 10.00 A Few Clouds Trace 27.0 21.0 78% 20 NA 29.99 1018.0
6:53 am PST SW 3.5 10.00 Mostly Cloudy Trace 26.0 19.9 78% NA NA 29.95 1016.8
5:53 am PST 3.5 10.00 Mostly Cloudy -- 25.0 19.0 78% NA NA 29.92 1015.7
4:53 am PST N 0.0 10.00 A Few Clouds -- 25.0 19.0 78% NA NA 29.89 1014.3
3:53 am PST N 0.0 10.00 Overcast -- 27.0 21.0 78% NA NA 29.87 1013.3
2:53 am PST N 0.0 10.00 Fair -- 27.0 19.9 75% NA NA 29.84 1012.6
1:53 am PST S 5.8 10.00 Overcast Trace 29.0 21.9 75% 23 NA 29.84 1012.4
12:53 am PST S 5.8 9.00 Light Snow Trace 30.0 21.0 69% 24 NA 29.84 1012.4
11:53 pm PST SE 4.6 10.00 Partly Cloudy -- 27.0 19.9 75% 22 NA 29.84 1012.4
10:53 pm PST S 4.6 10.00 A Few Clouds Trace 27.0 21.0 78% 22 NA 29.85 1012.9

Regional Weather Observation


Baker Municipal Airport, OR (KBKE)

Fair
24.0 F

Meacham, OR (KMEH)

Overcast
28.0 F

Joseph State Airport AWOS, OR (KJSY)

Fair
11.0 F

Eastern Oregon Regional Airport at Pendleton, OR (KPDT)

Fair
34.0 F

Grant County Regional Airport, OR (KGCD)

Mostly Cloudy
27.0 F

Ontario Municipal Airport, OR (KONO)

Mostly Cloudy
31.0 F

Advertise Here


Advertise Here